Location: Knowlton
(51.2333°N, 1.2667°E)
Time: 10:15:34
(UTC+00:00)

BEESAT 3 - Visible Passes

Search period start: 01 December 2021 00:00
Search period end: 11 December 2021 00:00
Orbit: 477 x 511 km, 64.9° (Epoch: 30 November)

Date Brightness Start Highest point End Pass type
(mag) Time Alt. Az. Time Alt. Az. Time Alt. Az.
01 Dec ? 04:19:17 13° SE 04:19:17 13° SE 04:19:42 10° SE visible
06 Dec ? 17:48:20 10° SSE 17:48:22 10° SSE 17:48:22 10° SSE visible
07 Dec ? 17:26:09 10° SE 17:27:03 12° SE 17:27:03 12° SE visible
07 Dec ? 19:00:39 10° SW 19:01:38 17° SW 19:01:38 17° SW visible
08 Dec ? 17:04:08 10° SE 17:05:19 11° ESE 17:05:38 11° ESE visible
08 Dec ? 18:38:01 10° SW 18:40:12 33° SW 18:40:12 33° SW visible
09 Dec ? 18:15:24 10° SSW 18:18:41 62° S 18:18:41 62° S visible
10 Dec ? 17:52:46 10° SSW 17:56:32 65° SE 17:57:05 56° E visible
10 Dec ? 19:30:52 10° W 19:31:39 14° W 19:31:39 14° W visible
